Weather History for Mt. Clemens, MI

Change the Weather History Date:

Thursday, December 6, 2012

  Actual Average Record
Temperature  
Mean Temperature 34 °F -  
Max Temperature 39 °F 38 °F 68 °F (1998)
Min Temperature 28 °F 26 °F 6 °F (1964)
Degree Days  
Heating Degree Days 32    
Moisture  
Dew Point 30 °F    
Average Humidity 81    
Maximum Humidity 87    
Minimum Humidity 70    
Precipitation  
Precipitation 0.00 in - - ()
Sea Level Pressure  
Sea Level Pressure 30.16 in    
Wind  
Wind Speed 9 mph (SSE)    
Max Wind Speed 16 mph    
Max Gust Speed -    
Visibility 10 miles    
Events      
Averages and records for this station are not official NWS values.
T = Trace of Precipitation, MM = Missing Value Source: NWS Daily Summary

Daily Weather History Graph

Daily Weather History Graph

Search for Another Location

Airport:

Trip Planner

Search our weather history database for the weather conditions in past years. The results will help you decide how hot, cold, wet, or windy it might be!

Date:

Astronomy

Dec. 06, 2012 Rise Set
Actual Time 7:47 AM EST 4:57 PM EST
Civil Twilight 7:15 AM EST 5:29 PM EST
Nautical Twilight 6:40 AM EST 6:05 PM EST
Astronomical Twilight 6:05 AM EST 6:39 PM EST
Moon No Moon Rise 12:31 PM EST (12/6)
Length of Visible Light 10h 14m
Length of Day
9h 10m
Waning Gibbous, 49% of the Moon is Illuminated
Dec 6
Waning Gibbous
Dec 13
New
Dec 20
First Quarter
Dec 28
Full
Jan 4
Last Quarter

Hourly Weather History & Observations

Time (EST) Temp. Windchill Dew Point Humidity Pressure Visibility Wind Dir Wind Speed Gust Speed Precip Events Conditions
4:55 AM 28.4 °F 21.2 °F 23.0 °F 80% 30.34 in 10.0 mi SE 6.9 mph - N/A   Mostly Cloudy
5:55 AM 30.2 °F 22.6 °F 26.6 °F 86% 30.32 in 10.0 mi ESE 8.1 mph - N/A   Overcast
6:55 AM 32.0 °F 23.6 °F 28.4 °F 87% 30.31 in 10.0 mi ESE 10.4 mph - N/A   Overcast
7:55 AM 30.2 °F 21.3 °F 26.6 °F 86% 30.29 in 10.0 mi East 10.4 mph - N/A   Mostly Cloudy
8:55 AM 32.0 °F 23.6 °F 28.4 °F 87% 30.28 in 10.0 mi ESE 10.4 mph - N/A   Overcast
9:40 AM 33.8 °F 25.3 °F 30.2 °F 87% 30.20 in 10.0 mi ESE 11.5 mph - N/A   Overcast
9:55 AM 35.6 °F 27.5 °F 32.0 °F 87% 30.25 in 10.0 mi SSE 11.5 mph - N/A   Overcast
10:55 AM 37.4 °F 29.3 °F 30.2 °F 75% 30.24 in 10.0 mi SSE 12.7 mph - N/A   Overcast
11:55 AM 37.4 °F 28.2 °F 32.0 °F 81% 30.19 in 10.0 mi South 16.1 mph - N/A   Overcast
12:55 PM 37.4 °F 28.9 °F 30.2 °F 75% 30.16 in 10.0 mi South 13.8 mph - N/A   Overcast
1:10 PM 37.4 °F 30.3 °F 30.2 °F 75% 30.11 in 10.0 mi South 10.4 mph - N/A   Overcast
1:55 PM 39.2 °F 32.0 °F 30.2 °F 70% 30.12 in 10.0 mi South 11.5 mph - N/A   Overcast
2:55 PM 39.2 °F 33.0 °F 30.2 °F 70% 30.11 in 10.0 mi South 9.2 mph - N/A   Overcast
3:55 PM 37.4 °F 31.4 °F 30.2 °F 75% 30.09 in 10.0 mi SE 8.1 mph - N/A   Overcast
4:55 PM 37.4 °F 32.1 °F 30.2 °F 75% 30.08 in 10.0 mi SSE 6.9 mph - N/A   Overcast
5:55 PM 37.4 °F 30.8 °F 32.0 °F 81% 30.07 in 10.0 mi SSE 9.2 mph - N/A   Overcast
6:55 PM 35.6 °F 28.0 °F 30.2 °F 81% 30.06 in 12.0 mi South 10.4 mph - N/A   Overcast
7:55 PM 35.6 °F 29.2 °F 30.2 °F 81% 30.06 in 12.0 mi SSW 8.1 mph - N/A   Overcast
8:55 PM 35.6 °F 29.9 °F 30.2 °F 81% 30.04 in 12.0 mi SSW 6.9 mph - N/A   Overcast
9:55 PM 35.6 °F 30.7 °F 32.0 °F 87% 30.02 in 12.0 mi South 5.8 mph - N/A   Overcast
10:55 PM 35.6 °F 29.9 °F 32.0 °F 87% 30.01 in 12.0 mi SSW 6.9 mph - N/A   Overcast